Regional Weather Roundup
Issued by NWS Sterling, VA

Home | Current Version | Previous Version | Text Only | Print | Product List | Glossary On
Versions: 1 2 3 4 5 6 7 8 9 10 11 12 13 14 15 16 17 18 19 20 21 22 23 24 25 26 27
000
ASUS41 KLWX 122010
RWRLWX

REGIONAL WEATHER ROUNDUP
NATIONAL WEATHER SERVICE BALTIMORE MD/WASHINGTON DC
300 PM EST TUE DEC 12 2017

Note: "FAIR" indicates few or no clouds below 12,000 feet
with no significant weather and/or obstructions to visibility.
 TC=TEMPERATURE CELSIUS

 * =Non NWS site. Station does not report precipitation (e.g. rain,
    snow, etc.), thunder, or fog.

DCZ001-MDZ009-015-VAZ040>042-051-053>054-122100-
WASHINGTON METRO

CITY           SKY/WX    TMP DP  RH WIND       PRES   REMARKS
WASHINGTON NAT CLOUDY    48  30  49 NW20G25   29.53R
DULLES         CLOUDY    43  29  57 NW21G30   29.54R
ANDREWS AFB    PTSUNNY   46  27  47 W13G26    29.50S
FT BELVOIR     CLOUDY    45  28  50 NW20G29   29.54R
QUANTICO       CLOUDY    48  30  49 NW12      29.55R
COLLEGE PARK*  CLOUDY    45  29  54 N15G21    29.52R
LEESBURG*      CLOUDY    43  30  61 NW17      29.56R
MANASSAS*      CLOUDY    44  28  53 NW18G25   29.55R
GAITHERSBURG*  PTSUNNY   42  27  55 NW13G22   29.53R

$$

MDZ006>007-011-014-122100-
BALTIMORE METRO

CITY           SKY/WX    TMP DP  RH WIND       PRES   REMARKS
BWI AIRPORT    PTSUNNY   45  28  51 W18G26    29.51R
MD SCIENCE CTR   N/A     47  27  45 MISG      29.50S
MARTIN STATE   CLOUDY    46  32  57 W17G28    29.52R
ANNAPOLIS      CLOUDY    47  32  56 NW9       29.50S
FORT MEADE*    PTSUNNY   45  30  57 NW13G24   29.53R

$$

MDZ012-015-019>023-122100-
MARYLAND EASTERN SHORE

CITY           SKY/WX    TMP DP  RH WIND       PRES   REMARKS
OCEAN CITY     PTSUNNY   48  35  60 NW13G18   29.50S
SALISBURY      LGT RAIN  44  35  70 NW13      29.52R
BAY BRIDGE AP* CLOUDY    46  30  53 NW13G18   29.50S
CAMBRIDGE*     CLOUDY    45  36  70 CALM      29.51S
EASTON*        CLOUDY    45  34  65 W5        29.54

$$

MDZ017>025-122100-
SOUTHERN MARYLAND

CITY           SKY/WX    TMP DP  RH WIND       PRES   REMARKS
PATUXENT RIVER CLOUDY    46  34  62 W6        29.52S
ST INIGOES     CLOUDY    46  37  71 W5        29.52S
LEONARDTOWN*   CLOUDY    45  34  65 W3        29.53S

$$

MDZ003>005-122100-
NORTH CENTRAL MARYLAND

CITY           SKY/WX    TMP DP  RH WIND       PRES   REMARKS
FREDERICK*     PTSUNNY   43  23  45 NW16G25   29.58R
HAGERSTOWN APT PTSUNNY   38  18  44 NW22G29   29.56R WCI  27
WESTMINSTER*   PTSUNNY   43  28  56 W20G28    29.51R

$$

MDZ501>502-122100-
WESTERN MARYLAND

CITY           SKY/WX    TMP DP  RH WIND       PRES   REMARKS
OAKLAND*       CLOUDY    19  16  86 W7G20     29.50R
CUMBERLAND*    MOSUNNY   34  19  55 NW13G23   29.66R WCI  25

$$

VAZ025>031-122100-
SHENANDOAH VALLEY

CITY           SKY/WX    TMP DP  RH WIND       PRES   REMARKS
WINCHESTER*    CLOUDY    34  23  64 NW22G28   29.58R WCI  22
FRONT ROYAL*   CLOUDY    36  28  75 NW8G20    29.58R
LURAY*         CLOUDY    39  28  65 NW15      29.57R
NEW MARKET*    CLOUDY    39  19  44 NW6       29.57R
STAUNTON*      CLOUDY    37  22  56 W14G22    29.59R WCI  28
WAYNESBORO*    CLOUDY    38  23  55 NW16G25   29.57R WCI  29

$$

WVZ021-048>050-054>055-122100-
EASTERN WEST VIRGINIA PANHANDLE

CITY           SKY/WX    TMP DP  RH WIND       PRES   REMARKS
MARTINSBURG    CLOUDY    38  18  44 NW14      29.57R
PETERSBURG*    FLURRIES  32  23  70 W16G24    29.64R WCI  21

$$

VAZ036>039-050-122100-
CENTRAL FOOTHILLS

CITY           SKY/WX    TMP DP  RH WIND       PRES   REMARKS
CHARLOTTESVILL PTSUNNY   47  21  35 VRB6G18   29.54S
CULPEPER*      CLOUDY    47  24  40 NW10G17   29.55S
ORANGE*        CLOUDY    45  25  45 W10       29.54R
GORDONSVILLE*  CLOUDY    46  25  43 W6        29.54S
WARRENTON*     CLOUDY    46  23  39 NW12G17   29.53S

$$

VAZ055>057-122100-
NORTH AND CENTRAL PIEDMONT

CITY           SKY/WX    TMP DP  RH WIND       PRES   REMARKS
FREDERICKSBRG* CLOUDY    47  33  56 NW10      29.53R
STAFFORD*      CLOUDY    45  29  52 NW13G21   29.58R

$$

NCZ024-NYZ072-PAZ021-071-VAZ022-071-122100-
OTHER REGIONAL OBSERVATIONS

CITY           SKY/WX    TMP DP  RH WIND       PRES   REMARKS
NEW YORK CITY  CLOUDY    44  34  67 W5        29.45F
PHILADELPHIA   CLOUDY    45  31  58 NW13G20   29.47F
PITTSBURGH     CLOUDY    24  12  60 NW17      29.71R WCI  11
ROANOKE        FLURRIES  38  25  59 NW23G30   29.66R WCI  27
RICHMOND       CLOUDY    51  29  42 W13G23    29.53S
RALEIGH        PTSUNNY   50  28  42 W14G20    29.62S

$$

ANZ530>537-122100-
MARINE OBSERVATIONS

STATION/POSITION TIME  TEMP    WIND        PRES
                       AIR SEA DIR/SP/G
                 (UTC) (F)     (DEG/KT/KT) (MB)
THOMAS PT LIGHT  2000   46 47  320/ 14/ 15   N/A
BALT KEY BRIDGE  1948   45     310/ 20/ 23  998.6S
COVE POINT       1948   46     310/  5/  8 1000.0R
LEWISETTA        1948   46 45  300/  2/  3  999.7R
SOLOMONS ISLAND  1948   46 48  260/  6/  7  999.1R
PINEY POINT      1948          310/  6/  7   N/A

$$





USA.gov is the U.S. government's official web portal to all federal, state and local government web resources and services.